Flag for U.S.A. Weather past 2 weeks in San Buenaventura, California, U.S.A.

Now
66 °F

Low clouds.


Feels Like: 66 °F
Forecast: 63 / 73 °F
Wind: 6 mph from West

Location: Oxnard Airport

Current Time: Sep 18, 2014 at 11:56:34 PM

Latest Report: Sep 18, 2014 at 11:02 PM


Visibility: 8 mi

Pressure: 29.85 "Hg

Humidity: 90%

Dew point: 63 °F

Location of San BuenaventuraLocation

Historic Weather in San Buenaventura — Graph

°F

San Buenaventura temperature yesterday

Maximum temperature yesterday: 75 °F (at 11:51 AM)
Minimum temperature yesterday: 65 °F (at 5:51 AM)
Average temperature yesterday: 70 °F

Past Weeks' High & Low Weather Summary

 TemperatureHumidityPressure
High79 °F (Sep 15, 1:51 PM)94% (Sep 10, 10:51 PM)29.93 "Hg (Sep 10, 10:51 PM)
Low58 °F (Sep 6, 6:51 AM)37% (Sep 10, 9:51 AM)29.69 "Hg (Sep 16, 4:51 PM)
Average68 °F78%29.81 "Hg
* Reported Sep 3 9:51 PM — Sep 18 9:51 PM, San Buenaventura, Weather by CustomWeather, © 2014

Note: Actual official high and low records may vary slightly from our data, if they occured in-between our weather recording intervals... More about our weather records

Advertising

San Buenaventura weather history for previous 24 hours

 ConditionsComfort  
Time TempWeatherWind HumidityBarometerVisibility
9:51 PM
Sep 18
66 °FMostly cloudy.6 mph90%29.85 "Hg8 mi
8:51 PM66 °FLow clouds.5 mph90%29.84 "Hg9 mi
7:51 PM67 °FLow clouds.12 mph87%29.83 "Hg9 mi
6:51 PM68 °FLow clouds.17 mph84%29.82 "Hg9 mi
5:51 PM69 °FPartly sunny.15 mph81%29.81 "Hg10 mi
4:51 PM72 °FSunny.18 mph73%29.81 "Hg10 mi
3:51 PM74 °FSunny.14 mph69%29.82 "Hg10 mi
2:51 PM74 °FSunny.17 mph69%29.83 "Hg10 mi
1:51 PM73 °FPassing clouds.14 mph74%29.84 "Hg10 mi
12:51 PM74 °FPassing clouds.16 mph71%29.85 "Hg10 mi
11:51 AM74 °FSunny.14 mph69%29.86 "Hg10 mi
10:51 AM72 °FSunny.9 mph71%29.87 "Hg9 mi
9:51 AM70 °FSunny.6 mph73%29.87 "Hg10 mi
8:51 AM68 °FSunny.No wind73%29.86 "Hg9 mi
7:51 AM64 °FSunny.5 mph81%29.84 "Hg9 mi
6:51 AM60 °FClear.No wind86%29.83 "Hg8 mi
5:51 AM61 °FClear.No wind87%29.80 "Hg10 mi
4:51 AM61 °FClear.No wind87%29.79 "Hg10 mi
3:51 AM61 °FClear.No wind87%29.79 "Hg10 mi
2:51 AM62 °FClear.No wind86%29.79 "Hg9 mi
1:51 AM64 °FClear.No wind84%29.79 "Hg9 mi
12:51 AM64 °FClear.3 mph84%29.79 "Hg9 mi
11:51 PM
Sep 17
65 °FClear.6 mph81%29.78 "Hg10 mi
Weather by CustomWeather, © 2014

See weather overviewHow to use our weather pages